Starlink 11466

operational
NORAD ID: 62220 Int'l Des: 2024-231 Owner: SPXS Country: US Constellation: starlink
LEOCIRCULAR

About Starlink 11466

Description loading...

Live Position

Loading 3D Globe...

Upcoming Passes

Altitude History

Altitude vs Time

uPlot chart will show altitude changes over time

Two-Line Element Set

1 62220U 24231C 25259.39240533 .00301214 00000-0 24065-2 0 9996
2 62220 53.1561 240.6728 0001060 91.0946 269.0193 15.69663530 46037
Epoch: Sep 16, 2025 • Age: 34 hours

Current Status

Altitude 360.3 km
Velocity 7.70 km/s
Sub-Earth Point 39.34°N, 85.49°E
Launch Date Dec 5, 2024
Age 0.7 years
Type internet

Technical Details

Classification Payload
Mass 960.00 kg
Dry Mass 910.00 kg
Total Mass 960.00 kg
Length 0.30 m
Diameter 4.10 m
Span 29.00 m
Shape Box + pan
Manufacturer SPXS
Bus Type Starlink V2MD
Phase Status In Orbit
Owner/State SPXS/US

Large Constellations

Loading constellations...